Weather Roundup
Issued by NWS Chicago, IL

Home | Current Version | Previous Version | Text Only | Print | Product List | Glossary On
Versions: 1 2 3 4 5 6 7 8 9 10 11 12 13 14 15 16 17 18 19 20 21 22 23 24 25 26 27 28 29 30 31 32 33 34 35 36 37 38 39 40 41 42 43 44 45 46 47 48 49 50
000
NZUS59 KLOT 201110
HRRLOT

CHICAGO AREA WEATHER ROUNDUP
NATIONAL WEATHER SERVICE CHICAGO/ROMEOVILLE IL
600 AM CDT MON OCT 20 2014

NOTE: "FAIR" INDICATES FEW OR NO CLOUDS BELOW 12,000 FEET WITH NO
SIGNIFICANT WEATHER AND/OR OBSTRUCTIONS TO VISIBILITY.

* THESE STATIONS ARE NOT UNDER NWS QUALITY CONTROL. THEY ALSO MAY NOT
  REPORT WEATHER SUCH AS PRECIPITATION OR FOG.

ILZ005-006-012>014-019>023-201200-
NORTHEAST ILLINOIS

CITY           SKY/WX    TMP DP  RH WIND       PRES   REMARKS
OHARE          MOCLDY    49  44  83 SW8       29.80F
MIDWAY         MOCLDY    51  45  79 SW7       29.81F
AURORA         PTCLDY    47  42  83 SW6       29.81F
LANSING*       MOCLDY    49  44  84 SW9       29.83F
JOLIET*        MOCLDY    45  43  93 S3        29.83S
WAUKEGAN       PTCLDY    48  43  82 VRB7      29.77F
DUPAGE AIRPORT PTCLDY    45  42  89 S5        29.80F
WHEELING       PTCLDY    50  44  80 SW6       29.80F
KANKAKEE*      PTCLDY    49  46  87 SW9       29.85F
MORRIS*        PTCLDY    48  46  92 SW5       29.81F
LEWIS AIRPORT* MOCLDY    47  46  93 SW7       29.82S
NORTHERLY IS     N/A     51  44  77 W13         N/A
$$

WIZ051-052-058>065-066-070>072-201200-
SOUTHEAST WISCONSIN

CITY           SKY/WX    TMP DP  RH WIND       PRES   REMARKS
MILWAUKEE      CLEAR     49  42  77 W7        29.77F
KENOSHA*       CLEAR     46  42  86 W7        29.78F
RACINE*        CLEAR     48  42  80 W7        29.79S
BURLINGTON     CLEAR     42  40  95 SW3       29.79R
WAUKESHA       CLEAR     43  41  93 CALM      29.80R
WEST BEND      CLEAR     45  39  81 W3        29.78S
$$

INZ001>003-010>013-019-020-201200-
NORTHWEST INDIANA

CITY           SKY/WX    TMP DP  RH WIND       PRES   REMARKS
GARY*          PTCLDY    52  45  76 SW10      29.83F
MICHIGAN CITY* NOT AVBL
RENSSELAER*    NOT AVBL
VALPARAISO     CLEAR     47  43  86 S6        29.84F
$$

LMZ740>746-201200-
SOUTHERN LAKE MICHIGAN

STATION/POSITION TIME  SKY/WX   TEMP WIND        PRES    VSBY
                                AIR  DIR/SP/G
                 (UTC)          (F)  (DEG/KT/KT) (MB)    (MI)
HARRISON CRIB    1100            53  230/ 20/ 24   N/A
BURNHAM HARBOR   1100            51  250/ 14/ 15   N/A
CALUMET HARBOR   1100            51  210/  9/ 14 1008.2F
BURNS HARBOR     NOT AVBL
MICHIGAN CITY    1100            50  160/ 11/ 13   N/A
$$

ABBREVIATIONS USED IN REMARKS
   TC - TEMPERATURE IN CELSIUS
  WCI - WIND CHILL INDEX
   HX - HEAT INDEX
  VSB - VISIBILITY
$$



USA.gov is the U.S. government's official web portal to all federal, state and local government web resources and services.